Miscellaneous Local Product
Issued by NWS Hastings, NE

Home | Current Version | Previous Version | Text Only | Print | Product List | Glossary Off
Versions: 1 2 3 4 5 6 7 8 9 10 11 12 13 14 15 16 17 18 19 20 21 22 23 24 25 26 27 28 29 30 31 32 33 34 35 36 37 38 39 40 41 42 43 44 45 46 47 48 49 50

000
AXUS43 KGID 232202
MISGRI

GID CWA HOURLY WEATHER ROUNDUP
NATIONAL WEATHER SERVICE HASTINGS NE
500 PM CDT SAT MAY 23 2015

NOTE: "FAIR" INDICATES FEW OR NO CLOUDS BELOW 12,000 FEET WITH NO
SIGNIFICANT WEATHER AND/OR OBSTRUCTIONS TO VISIBILITY.

...SOUTH CENTRAL NEBRASKA...

CITY           SKY/WX    TMP DP  RH WIND       PRES   REMARKS
GRAND ISLAND   CLOUDY    60  56  86 E8        30.06F
HASTINGS       CLOUDY    59  56  89 E14       30.02F
KEARNEY        CLOUDY    57  55  94 E16       30.02F
ORD            CLOUDY    58  53  84 SE9       30.04F
YORK           CLOUDY    61  57  88 SE9       30.08S
AURORA         CLOUDY    61  59  93 E10       30.06F
LEXINGTON      CLOUDY    59  57  94 E13       29.99F
HOLDREGE       CLOUDY    60  56  88 E17       29.99F
HEBRON         LGT RAIN  60  58  90 E10       30.04F

...NEBRASKA PANHANDLE...

CITY           SKY/WX    TMP DP  RH WIND       PRES   REMARKS
CHADRON        CLOUDY    58  55  90 E13       29.97S
ALLIANCE       CLOUDY    54  53  97 SE13      29.96F
SCOTTSBLUFF    CLOUDY    57  53  86 SE15      29.94F
SIDNEY         CLOUDY    57  53  86 SE17      29.93S

...WESTERN AND NORTH CENTRAL NEBRASKA...

CITY           SKY/WX    TMP DP  RH WIND       PRES   REMARKS
VALENTINE      CLOUDY    60  53  77 E16       30.02F
AINSWORTH      CLOUDY    57  54  89 SE14      30.04F
ONEILL         CLOUDY    59  55  86 SE10      30.08F
BROKEN BOW     CLOUDY    58  54  86 E14G25    30.02F
IMPERIAL       PTSUNNY   64  52  64 SE16      29.92F
NORTH PLATTE   CLOUDY    61  54  77 E14       29.98F
MCCOOK         CLOUDY    67  54  63 SE18      29.93F

...EASTERN NEBRASKA...

CITY           SKY/WX    TMP DP  RH WIND       PRES   REMARKS
NORFOLK        CLOUDY    60  55  83 SE8       30.09F
SO SIOUX CITY  CLOUDY    64  54  69 S14       30.12S
TEKAMAH        CLOUDY    63  57  81 SE7       30.12F
COLUMBUS       CLOUDY    61  54  77 E8        30.12F
ALBION         CLOUDY    60  54  79 SE9       30.09S
OMAHA EPPLEY   CLOUDY    65  57  75 S5        30.11F
OFFUTT AFB     CLOUDY    64  59  82 S3        30.10F
MILLARD        CLOUDY    64  58  78 SE6       30.11F
LINCOLN        CLOUDY    62  59  90 SE6       30.10F
NEBRASKA CITY  CLOUDY    65  57  76 SE10      30.11F
FALLS CITY     CLOUDY    66  59  78 SE10      30.08F

...NORTHERN KANSAS...

CITY           SKY/WX    TMP DP  RH WIND       PRES   REMARKS
GOODLAND       PTSUNNY   67  55  65 SE18G24   29.90F
HILL CITY      CLOUDY    65  56  72 SE18G28   29.94F
NORTON         PTCLDY    66  54  63 E13G24    29.94F
PHILLIPSBURG   PTSUNNY   64  61  88 E18       29.97F
SMITH CENTER   CLOUDY    59  57  94 E15       29.99F
HAYS           CLOUDY    61  52  72 E14       29.95F
RUSSELL        CLOUDY    60  58  92 NE12      29.94F
CONCORDIA      CLOUDY    60  58  92 E12       30.00F
SALINA         LGT RAIN  60  58  92 SE29G45   29.92F
TOPEKA         CLOUDY    65  62  90 E10       30.06F



USA.gov is the U.S. government's official web portal to all federal, state and local government web resources and services.